Location: Beutels
(47.8767°N, 9.8584°E)
Time: 06:13:18
(UTC+00:00)

Meteor 2-6 Rocket - Pass Details

Date: 19 May 2025
Orbit: 804 x 914 km, 81.3° (Epoch: 22 June)

Event Time Altitude Azimuth Distance (km) Brightness Sun altitude
Exits shadow 21:30:08 19° 197° (SSW) 2,001 5.7 -18.0°
Maximum altitude 21:34:29 77° 282° (WNW) 911 4.4 -18.4°
Drops below altitude 10° 21:40:14 10° 9° (N) 2,519 7.5 -18.8°
Sets 21:42:39 0° 11° (N) 3,443 8.3 -18.9°
